User: anonymous   Login
Location: Haulchin
(50.3172°N, 3.4360°E)
Time: 22:51:36
(UTC+00:00)
Language:

Cosmos 1697 Rocket - Orbit

View from above orbital plane
View from above orbital plane
View from above satellite
View from above satellite

Ground track
Ground track

The orbit data is extracted from the following two-line orbital elements,

1 16182U 85097B   24204.41252297  .00000216  00000-0  13259-3 0  9993
2 16182  71.0047 313.6505 0005319  80.7567 341.8079 14.16436498  2935
Epoch (UTC): 22 July 2024 09:54:01
Eccentricity: 0.0005319
inclination: 71.0047°
perigee height: 833 km
apogee height: 841 km
right ascension of ascending node: 313.6505°
argument of perigee: 80.7567°
revolutions per day: 14.16436498
mean anomaly at epoch: 341.8079°
orbit number at epoch: 293

The dashed part of the orbit path shows where the satellite is in the earth's shadow,  

DLR